This demonstration page uses our WeatherBlox Daily Observations layout. Learn more.

38.89511, -77.03637

Hourly Observations for March 14, 2015

Temp ( °F °C ) Dew Point ( °F °C ) Humidity (%) Winds ( mph kmh ) Pressure ( in mb ) Visibility ( mi km ) Precip ( " mm )
12:09 am 00:09 Cloudy with Light Rain 45 7 39 4 81 81 S 5 7 30.33 1027 8 12.87472 0 0.0254
12:23 am 00:23 Cloudy with Light Rain 45 7 41 5 87 87 SSE 3 6 30.33 1027 10 16.0934 0.01 0.254
12:52 am 00:52 Cloudy with Light Rain 45 7.2 41 5 86 86 S 8 13 30.32 1027 10 16.0934 0.01 0.254
1:43 am 01:43 Cloudy with Light Rain 45 7 41 5 87 87 S 8 13 30.3 1026 5 8.0467 0.01 0.254
1:52 am 01:52 Cloudy with Light Rain 45 7.2 41 5 86 86 S 7 11 30.29 1026 4 6.43736 0.02 0.508
2:07 am 02:07 Cloudy with Light Rain 45 7 41 5 87 87 S 7 11 30.27 1025 4 6.43736 0.01 0.254
2:32 am 02:32 Cloudy with Light Rain 45 7 43 6 93 93 S 7 11 30.27 1025 6 9.65604 0 0
2:47 am 02:47 Cloudy with Light Rain 45 7 43 6 93 93 S 7 11 30.27 1025 5 8.0467 0.05 1.27
2:52 am 02:52 Cloudy with Light Rain 45 7.2 41 5 86 86 S 8 13 30.25 1024 4 6.43736 0.05 1.27
3:52 am 03:52 Cloudy with Light Rain 45 7.2 42 5.6 90 90 S 8 13 30.21 1023 4 6.43736 0.1 2.54
4:09 am 04:09 Cloudy with Light Rain 45 7 43 6 93 93 S 8 13 30.21 1023 6 9.65604 0.03 0.762
4:18 am 04:18 Cloudy with Light Rain 45 7 43 6 93 93 S 7 11 30.21 1023 8 12.87472 0 0
4:52 am 04:52 Cloudy with Light Rain 45 7.2 42 5.6 90 90 S 6 9 30.18 1022 8 12.87472 0.08 2.032
5:52 am 05:52 Cloudy with Light Rain 46 7.8 42 5.6 86 86 SSW 6 9 30.16 1022 4 6.43736 0.04 1.016
6:52 am 06:52 Cloudy with Light Rain 45 7.2 42 5.6 90 90 S 8 13 30.14 1021 10 16.0934 0.03 0.762
7:52 am 07:52 Cloudy with Light Rain 46 7.8 42 5.6 86 86 S 8 13 30.11 1020 7 11.26538 0.03 0.762
8:52 am 08:52 Cloudy with Light Rain 46 7.8 43 6.1 89 89 S 7 11 30.08 1019 5 8.0467 0.04 1.016
9:07 am 09:07 Cloudy with Light Rain 46 8 43 6 87 87 S 8 13 30.09 1019 4 6.43736 0.02 0.508
9:52 am 09:52 Cloudy with Light Rain 47 8.3 43 6.1 86 86 S 12 19 30.06 1018 4 6.43736 0.06 1.524
10:52 am 10:52 Cloudy with Light Rain 48 8.9 45 7.2 89 89 S 12 19 30.03 1017 4 6.43736 0.05 1.27
11:52 am 11:52 Cloudy with Light Rain 50 10 46 7.8 86 86 S 12 19 29.98 1015 10 16.0934 0.05 1.27
12:18 pm 12:18 Cloudy 52 11 48 9 88 88 S 12 19 29.97 1015 10 16.0934 0 0
12:22 pm 12:22 Cloudy 52 11 48 9 88 88 S 10 17 29.97 1015 10 16.0934 0 0
12:52 pm 12:52 Cloudy 53 11.7 49 9.4 86 86 SSW 13 20 29.93 1014 10 16.0934 0 0
1:20 pm 13:20 Cloudy 54 12 48 9 82 82 S 12 19 29.91 1013 10 16.0934 0 0
1:52 pm 13:52 Cloudy 57 13.9 51 10.6 81 81 S 9 15 29.88 1012 10 16.0934 0 0
2:06 pm 14:06 Cloudy 55 13 50 10 82 82 S 13 20 29.88 1012 10 16.0934 0 0
2:40 pm 14:40 Cloudy 59 15 52 11 77 77 S 13 20 29.85 1011 10 16.0934 0 0
2:52 pm 14:52 Cloudy 58 14.4 52 11.1 81 81 S 10 17 29.84 1011 10 16.0934 0 0
2:56 pm 14:56 Cloudy 57 14 52 11 82 82 S 10 17 29.83 1010 10 16.0934 0 0
3:36 pm 15:36 Cloudy with Light Rain 55 13 52 11 88 88 S 10 17 29.83 1010 10 16.0934 0 0
3:52 pm 15:52 Cloudy with Light Rain 57 13.9 52 11.1 83 83 SSW 10 17 29.82 1010 10 16.0934 0.01 0.254
4:14 pm 16:14 Cloudy with Light Rain 55 13 52 11 88 88 S 8 13 29.8 1009 6 9.65604 0 0
4:36 pm 16:36 Cloudy with Light Rain 54 12 50 10 88 88 S 12 19 29.77 1008 7 11.26538 0 0
4:52 pm 16:52 Cloudy with Light Rain 54 12.2 51 10.6 90 90 S 12 19 29.77 1008 10 16.0934 0.04 1.016
5:16 pm 17:16 Mostly Cloudy 55 13 52 11 88 88 SSW 9 15 29.77 1008 10 16.0934 0 0.0254
5:35 pm 17:35 Cloudy 57 14 54 12 88 88 SSW 6 9 29.77 1008 10 16.0934 0 0.0254
5:52 pm 17:52 Cloudy 57 13.9 53 11.7 87 87 SW 8 13 29.78 1009 10 16.0934 0 0.0254
6:52 pm 18:52 Cloudy 55 12.8 51 10.6 87 87 SSW 5 7 29.78 1009 10 16.0934 0 0
7:52 pm 19:52 Cloudy with Mist and Fog 54 12.2 51 10.6 90 90 SSE 5 7 29.79 1009 6 9.65604 0 0
8:16 pm 20:16 Cloudy 55 13 52 11 88 88 S 5 7 29.8 1009 9 14.48406 0 0
8:52 pm 20:52 Cloudy 54 12.2 51 10.6 90 90 S 5 7 29.81 1009 9 14.48406 0 0
9:30 pm 21:30 Cloudy 54 12 50 10 88 88 S 7 11 29.83 1010 10 16.0934 0 0
9:52 pm 21:52 Cloudy 55 12.8 52 11.1 90 90 SW 3 6 29.82 1010 10 16.0934 0 0
10:52 pm 22:52 Cloudy 56 13.3 51 10.6 84 84 WNW 6 9 29.83 1010 10 16.0934 0 0
11:52 pm 23:52 Cloudy 59 15 47 8.3 64 64 WNW 8 13 29.84 1011 10 16.0934 0 0

Powered by AerisWeather